DELTA 1 DEB, 10643

Orbit data source: Space-Track

DELTA 1 DEB, 10643 is space debris in SSO originally from a launch on Thu, 29 Jul 1976 UTC launched from the Air Force Western Test Range (AFWTR). Debris objects in space refer to the collection of defunct objects orbiting the Earth. Examples of debris include non-operational satellites, rocket bodies, and fragments generated from explosions, collisions, or faulty payload assembly.

Loading next visibility...
Identifier
10643, 1976-077D
Orbit
SSO
Country
Flag of USUS
Related business
Manufacturer
Unknown
Mission
Spacecraft
Bus & Motor
Unknown
Mass
Unknown
Launch date (UTC)
1976-07-29 (50 years ago)
Launch vehicle
Unknown
Launch site
Air Force Western Test Range (AFWTR)
Object type
Payload
Rocket body
Debris
Shape & HBR
Unknown shape, 0.1 m
Radar Cross Section
Small (<0.1 m²)

Expand to show TLE details & history
Last TLE update: 3 days ago

TLE from 3 days ago
0 DELTA 1 DEB
1 10643U 76077D   26116.84383095  .00000117  00000-0  16392-2 0  9999
2 10643 102.1208  80.6638 0171003  97.8690 321.4406 12.10360697198173
Epoch: 2026-04-26T20:15Z
TLE epoch observation values (Epoch: 2026-04-26T20:15:06.994Z)
Latitude
56.16718°
Longitude
-96.55042°
Altitude
1,537.706 km
Speed
7.15 km/s
True Right ascension
04h 08m 16s
True Declination
56° 01' 25"
Sunlit
Object was in daylight at epoch
Visualization orbit readout
Latitude
Unknown
Longitude
Unknown
Altitude
Unknown
Speed
Unknown
Apparent Right ascension
Unknown
Apparent Declination
Unknown
Sunlit
N/A
Visualization observer readout
Local Sidereal Time
16:41:47
Azimuth
Unknown
Elevation
Unknown
Doppler factor
Unknown
Orbital elements
Apogee altitude
1,769.407 km
Perigee altitude
1,495.441 km
Semi-major axis
8,010.561 km
Eccentricity
0.0171
Inclination
102.1208°
RAAN
80.6638°
Arg. of periapsis
97.869°
True anomaly
320.19851°
Mean anomaly
321.4406°
Eccentric anomaly
320.82164°
Mean motion
3.02725 °/min
Orbital period
118.92 mins
BSTAR
0.0016392
Loading maneuver chart data...
Computing Atmospheric mass density...
Loading historical data...
Loading historical data...
Loading historical data...
Loading historical data...
Loading historical data...
Loading historical data...
Loading historical data...

Documentation

Showing up to 5 results
|